Wind_Speed
15 15 15 13 14 15 15 17 22 25 27 29 31 34 35 35 35 35 35 36 35 34 33 32 31 30 29 26 23 22 22 20 19 18 16 14 14 14 14 14 12 10 10 9 7 8 8 6 4 4 4 3 3 2 2 3 4 4 4 4 3 4 5
14 13 13 13 14 15 15 19 24 26 27 29 31 33 34 35 37 37 36 36 36 35 35 34 32 31 29 26 24 23 22 21 19 17 15 14 14 13 13 12 10 11 10 8 7 8 8 7 5 4 4 4 3 2 2 3 4 5 5 5 4 3 4
13 12 14 14 14 14 15 18 23 26 28 29 30 33 35 37 39 40 39 38 36 35 35 34 33 32 30 27 26 24 23 21 20 17 15 14 13 13 12 11 11 11 9 8 8 8 8 7 6 5 5 4 4 4 3 3 4 5 6 6 6 5 5
14 14 15 16 15 14 14 17 22 26 29 32 34 36 38 39 41 41 40 40 38 36 35 35 34 33 31 29 28 26 25 23 20 17 16 13 12 13 13 12 12 10 9 9 9 9 8 7 7 7 7 6 5 5 5 4 4 5 5 6 6 7 8
14 13 13 13 13 12 12 15 22 27 30 32 35 37 38 39 39 39 40 40 40 39 38 37 36 34 33 31 29 27 26 24 21 18 16 14 13 14 13 13 12 10 10 10 9 10 9 9 9 10 9 7 7 6 6 6 6 6 6 7 7 8 9
11 11 12 12 12 12 13 15 23 29 31 33 35 35 36 37 37 38 39 39 39 38 36 36 35 34 34 32 30 27 26 24 21 19 17 15 14 14 13 12 12 12 11 11 11 11 11 12 12 12 10 9 8 8 7 6 7 8 9 9 9 9 10
11 11 12 12 12 13 13 16 23 29 31 33 33 32 32 35 36 37 37 37 38 36 35 35 35 35 34 33 31 28 27 25 22 20 19 17 15 14 13 12 12 13 12 13 12 13 14 14 14 13 12 10 11 11 9 8 7 7 8 10 10 9 10
14 12 13 13 13 14 13 15 21 26 27 27 28 29 31 33 33 34 35 36 36 36 36 36 36 35 34 33 31 30 28 26 23 21 20 18 16 14 13 12 11 12 13 13 13 14 15 15 15 15 14 13 13 14 13 11 9 8 9 10 11 10 10
13 12 13 13 13 13 12 15 21 25 25 27 29 30 31 32 32 33 35 35 35 35 36 36 36 35 34 33 32 30 28 26 23 22 21 19 17 15 13 11 10 11 12 13 13 14 16 17 17 17 17 17 17 17 16 15 12 10 10 10 10 9 10
10 10 11 11 12 11 11 14 18 20 22 24 26 28 29 31 32 32 33 34 34 35 37 36 35 34 33 33 32 30 28 26 24 23 23 21 19 16 13 11 11 12 13 12 13 15 16 16 16 15 15 16 16 17 18 17 15 12 11 11 9 8 9
9 10 9 10 10 10 10 12 13 15 19 23 25 27 29 31 31 31 33 34 34 34 35 36 34 34 34 33 32 30 29 27 26 26 24 23 20 17 14 12 13 13 13 13 14 14 12 12 12 11 10 10 11 12 13 13 14 13 12 12 11 10 10
9 9 10 11 11 11 11 12 12 14 19 23 25 27 29 30 31 31 32 33 34 34 34 34 34 34 34 33 32 32 30 29 28 27 25 24 21 17 15 15 16 16 15 14 13 13 12 11 10 10 9 8 8 8 8 9 11 13 13 13 13 12 12
10 9 10 11 11 11 11 12 13 15 19 23 26 28 30 31 31 32 32 33 33 33 34 33 33 34 34 33 33 33 33 31 29 27 26 24 21 17 16 17 18 17 16 15 15 14 13 11 10 10 9 8 8 7 7 8 9 11 12 13 13 13 13
11 10 10 10 11 12 13 14 14 14 17 22 25 26 29 30 31 33 33 33 33 33 33 33 33 34 34 33 34 34 34 32 29 27 26 24 21 18 17 18 19 18 17 16 16 15 13 12 11 10 9 9 9 9 10 9 9 10 11 12 13 14 13
11 12 11 11 12 13 14 15 14 14 16 21 23 25 27 28 30 31 32 33 33 33 34 34 33 34 35 34 34 35 35 32 29 27 25 24 22 19 20 21 20 20 19 18 18 17 16 14 11 10 11 11 11 11 11 10 10 10 11 12 12 13 13
12 12 12 13 13 13 14 15 15 15 15 18 22 24 26 27 29 31 32 33 33 34 35 35 34 35 35 35 35 36 36 33 30 27 26 25 23 21 21 22 21 21 21 21 20 19 17 14 12 12 13 14 13 13 12 11 11 10 11 12 13 13 13
12 11 11 12 12 13 13 14 14 14 14 18 24 27 28 29 31 32 33 34 35 35 36 37 37 37 37 37 37 38 36 34 31 28 27 26 24 22 22 23 22 22 22 22 21 20 17 15 14 15 15 15 15 15 14 12 11 11 12 14 15 15 15
10 11 11 11 12 12 13 13 13 13 14 19 25 27 29 30 30 30 31 33 35 36 36 38 38 38 38 38 38 37 36 35 33 30 28 26 25 24 24 24 24 23 24 24 22 21 18 17 17 16 16 16 16 16 16 15 13 12 13 15 16 16 17
9 9 10 10 10 11 13 12 12 14 18 22 26 30 33 34 33 33 34 35 36 37 37 38 39 39 39 38 38 36 36 36 34 31 29 27 26 26 26 26 26 26 27 26 24 21 20 20 19 18 18 18 18 18 18 17 14 13 14 15 15 15 15
8 8 8 8 9 10 10 10 11 16 21 25 29 33 34 34 33 34 35 35 36 36 37 37 37 37 37 36 36 35 34 33 33 32 31 29 28 28 28 27 28 29 28 26 23 22 22 22 21 19 18 19 19 19 19 17 15 15 16 16 14 13 12
8 8 8 8 9 9 8 8 10 14 19 25 29 30 29 30 30 31 33 34 34 35 37 38 37 36 36 33 32 31 30 29 30 32 32 30 29 29 29 28 29 29 28 26 24 24 24 24 23 21 19 19 19 20 19 18 16 16 16 15 14 12 11
9 9 8 9 10 10 11 13 15 19 22 24 25 25 27 29 31 31 31 32 33 33 35 35 32 28 28 28 27 26 25 25 29 32 32 31 29 28 28 29 30 30 28 26 25 25 25 25 23 21 20 19 19 20 20 19 18 17 16 15 14 13 11
9 9 9 10 12 15 18 21 24 24 24 25 26 28 30 31 33 33 31 29 30 31 32 33 30 25 25 27 27 26 26 25 29 32 31 29 28 28 30 31 29 27 25 24 24 24 24 25 25 23 23 22 21 21 21 22 21 19 17 16 14 13 11
8 8 9 10 12 14 18 22 23 22 21 22 25 27 30 32 33 33 30 28 29 29 31 33 32 28 29 30 29 29 29 27 28 30 29 27 28 30 30 27 24 23 23 23 24 24 25 25 24 24 24 24 23 23 23 23 22 20 18 16 14 13 11
6 6 8 11 13 14 17 19 19 18 19 21 24 28 33 35 36 33 29 27 28 29 30 31 30 28 30 31 31 31 30 27 26 28 29 29 30 29 25 23 24 26 26 25 25 26 26 24 23 22 23 24 26 27 27 24 21 20 19 16 14 12 11
6 6 7 10 13 14 15 16 17 16 17 19 20 22 22 22 24 25 23 24 28 31 31 33 32 31 32 33 33 31 28 26 26 28 29 29 29 27 24 22 23 25 24 24 23 24 24 24 24 25 26 25 25 28 29 26 22 20 18 16 14 12 11
5 7 9 9 10 11 11 13 15 16 16 15 14 14 12 10 12 15 12 11 19 28 33 36 34 32 33 33 30 28 26 26 28 28 28 28 27 24 21 19 19 20 20 20 21 23 24 24 24 26 27 25 22 20 19 18 18 19 18 16 14 12 11
6 6 8 10 11 12 14 15 16 17 17 18 20 23 23 21 19 17 13 10 18 28 34 36 34 32 32 30 28 27 26 26 26 25 25 25 24 21 18 17 17 17 16 18 22 24 26 26 25 25 24 22 18 15 11 10 13 16 17 16 14 12 11
6 7 8 10 11 13 16 15 14 15 14 15 19 23 27 29 25 21 18 19 30 33 31 30 31 31 29 27 26 25 24 22 22 22 23 22 21 19 18 17 17 15 15 19 23 24 25 25 23 22 21 19 17 16 15 16 16 18 18 17 14 12 12
6 7 8 9 10 14 17 16 15 16 15 15 18 20 24 28 25 20 19 24 34 30 25 26 27 26 24 24 24 22 20 19 19 19 19 19 18 17 17 17 16 15 17 20 22 22 24 23 21 21 20 19 18 17 17 18 18 20 20 17 14 13 12
6 7 8 11 12 14 18 19 18 19 18 16 18 19 22 25 24 21 19 23 28 23 21 21 22 22 22 21 19 18 17 17 16 16 16 16 16 16 17 17 17 18 18 20 21 22 22 22 22 21 20 18 18 18 17 16 16 19 19 17 14 13 13
6 7 9 11 12 14 18 20 19 20 19 17 17 20 22 22 20 19 13 11 14 17 17 12 13 17 17 16 15 16 16 16 15 14 14 14 14 15 15 16 17 17 18 20 21 21 22 22 22 21 20 19 18 18 17 14 14 18 19 17 15 15 14
4 5 7 9 12 15 18 18 17 17 17 17 17 20 23 22 21 22 17 7 7 14 16 11 14 15 15 16 17 16 16 16 15 15 14 13 14 14 14 14 14 14 16 19 20 20 21 21 20 19 19 19 18 17 16 14 15 18 19 18 17 16 14
4 3 4 7 10 13 15 15 15 16 17 17 19 23 26 25 23 23 22 12 9 11 15 17 17 14 14 16 17 17 16 15 14 15 16 14 13 13 12 11 12 12 14 16 17 18 20 20 19 18 17 16 16 16 15 14 16 19 20 19 18 17 14
5 4 5 6 8 11 13 14 15 17 17 17 20 23 26 26 23 21 20 16 15 15 15 15 13 12 15 16 16 15 14 13 14 15 15 13 12 11 10 10 10 11 12 13 14 16 18 18 17 15 14 13 13 14 14 15 18 19 18 17 16 15 12
6 6 6 8 9 11 14 15 16 19 19 19 20 22 22 22 22 20 17 13 8 5 6 10 13 14 16 15 14 13 13 12 12 12 11 11 11 11 10 9 9 10 11 12 13 14 14 14 13 11 11 12 12 13 14 16 17 17 16 14 13 13 11
8 9 10 11 12 13 15 16 19 21 22 22 22 21 19 18 17 14 9 4 4 6 0 10 14 14 13 12 11 10 9 9 10 10 10 10 11 10 11 10 10 10 12 12 12 12 11 10 8 6 6 8 10 11 13 14 15 14 13 13 12 11 8
10 13 15 15 16 16 17 18 20 21 23 23 22 21 20 16 11 6 3 2 3 2 5 12 13 11 10 8 7 7 7 8 9 10 11 12 12 12 13 12 11 10 10 9 9 8 7 5 4 2 3 4 5 7 9 11 11 10 10 11 10 8 7
Wind_Direction
185 187 186 186 187 186 186 183 182 182 182 182 183 183 183 183 184 185 187 190 192 192 191 192 193 192 192 193 195 194 193 193 194 195 196 195 195 197 197 197 198 196 193 195 204 207 212 221 224 211 212 239 266 269 257 264 269 276 287 293 307 324 318
187 186 186 187 190 188 186 184 182 181 181 183 183 182 182 183 183 185 188 190 193 193 193 193 193 193 194 194 193 193 196 198 196 195 195 191 195 199 198 200 200 191 191 198 202 210 215 214 218 224 232 252 261 267 287 282 274 277 276 273 280 298 310
186 186 187 189 191 186 183 182 182 182 181 182 182 182 183 184 185 186 188 189 192 194 194 193 194 195 195 196 194 194 198 199 198 197 196 193 196 197 195 198 196 194 203 208 208 217 217 216 230 237 237 253 262 268 286 288 280 280 273 267 266 271 293
186 189 189 191 191 185 182 182 182 182 183 184 184 185 185 186 186 187 188 190 191 193 194 194 195 196 196 197 196 197 199 199 200 202 199 196 194 191 191 194 198 208 219 210 207 215 219 225 232 231 238 249 252 262 273 270 269 274 270 264 265 270 283
187 188 188 192 189 184 183 182 182 183 184 186 187 187 187 186 186 187 189 191 192 194 196 196 196 196 197 198 197 198 200 201 204 205 201 196 190 189 194 199 206 222 228 215 212 217 225 238 238 236 242 243 242 256 264 257 254 259 265 266 268 270 275
182 184 188 191 188 186 185 183 185 185 185 187 188 188 187 185 186 187 189 190 192 194 195 195 196 197 197 199 198 197 199 202 205 203 201 198 195 197 203 207 216 231 231 221 220 226 234 244 245 244 243 237 238 250 257 256 253 253 257 261 264 264 267
177 185 189 190 187 186 185 183 186 188 188 188 187 187 186 185 187 188 188 189 190 191 192 194 196 197 198 198 198 198 200 203 205 203 202 202 202 207 212 217 225 230 228 224 227 233 238 244 247 250 249 242 243 249 252 253 251 252 256 257 258 257 256
181 185 187 189 188 185 183 183 186 188 187 185 184 185 186 187 187 187 188 189 190 190 192 194 196 197 199 198 197 199 201 203 203 204 205 205 207 213 217 222 223 221 224 229 231 233 237 244 249 253 255 252 251 253 254 252 250 252 255 256 258 257 255
182 183 185 187 186 183 182 183 184 184 183 183 185 186 186 186 187 188 189 189 189 190 192 196 197 197 197 197 198 200 200 201 202 204 206 207 209 212 216 220 216 215 226 233 237 243 247 251 254 258 262 260 258 259 258 254 250 249 252 254 257 260 258
177 178 183 184 184 184 180 180 181 181 183 184 186 186 185 186 188 189 189 189 190 191 193 195 196 196 196 197 198 198 198 200 203 205 207 210 212 211 208 210 210 215 229 241 252 258 257 256 257 259 261 261 259 261 262 257 249 245 249 251 254 264 266
174 174 177 178 177 176 173 176 180 182 185 185 186 187 187 188 189 189 189 190 190 192 193 193 194 195 196 196 196 197 198 201 204 206 208 213 216 212 205 208 216 224 237 248 254 252 245 241 239 239 245 250 253 258 259 253 246 244 249 251 254 267 273
177 173 172 174 174 174 175 179 183 185 187 188 188 188 187 188 189 189 190 191 191 192 191 192 193 194 195 195 195 197 200 202 205 207 210 216 217 213 210 216 224 233 243 246 237 225 216 215 216 220 229 234 236 242 244 242 243 247 253 254 256 263 271
175 175 176 176 173 174 176 181 186 187 189 190 190 189 189 188 189 188 189 191 192 192 191 190 191 192 193 194 195 198 200 203 206 209 212 217 217 214 216 222 229 236 239 232 221 213 213 219 223 224 227 228 231 247 261 261 256 257 263 263 260 261 266
171 176 181 179 176 179 181 185 190 190 191 192 191 190 190 190 189 189 190 191 191 191 190 190 189 189 191 194 196 199 201 204 209 211 214 216 215 216 219 222 227 232 230 225 223 224 232 242 240 229 230 239 249 267 275 270 261 262 269 269 263 259 262
173 180 182 183 185 187 187 188 189 189 192 192 190 189 190 190 190 190 190 191 190 190 190 189 188 189 191 194 197 201 204 206 208 210 215 215 213 216 219 220 224 227 229 233 237 240 249 255 245 233 240 250 258 267 267 263 266 265 264 264 261 259 261
179 186 186 187 191 192 193 193 191 190 190 188 187 188 188 189 190 190 190 190 190 190 190 189 188 189 192 195 199 202 204 206 207 210 215 215 213 217 221 223 225 228 232 237 240 244 253 254 242 240 249 255 260 263 259 262 272 266 258 261 263 264 264
180 188 192 193 194 195 197 196 192 189 187 188 189 188 188 190 190 190 189 190 190 190 189 188 188 190 193 196 200 203 204 205 208 212 215 214 215 220 223 225 227 229 233 235 239 247 251 245 241 247 251 254 258 259 257 263 270 266 263 262 262 265 267
179 186 195 200 200 199 200 198 192 189 189 191 191 190 190 191 190 189 189 189 190 190 187 187 188 190 193 197 200 201 203 205 209 214 216 214 217 221 223 225 227 229 232 236 241 246 244 239 243 249 251 252 256 257 256 261 266 268 270 267 263 264 265
182 191 198 201 204 206 204 199 192 191 192 192 192 193 194 193 190 190 190 189 189 188 186 186 189 190 193 197 198 199 203 207 210 214 216 216 219 222 223 225 227 230 234 238 242 242 241 242 246 250 251 252 255 257 258 260 263 267 272 271 264 256 254
183 198 204 205 208 210 208 204 199 197 196 195 195 197 197 195 193 192 191 189 187 185 183 185 188 189 192 195 196 198 204 209 212 216 218 218 220 222 224 226 229 233 236 239 239 239 241 243 245 250 252 252 255 260 260 259 262 269 273 268 255 246 250
181 187 194 203 207 210 210 205 199 198 200 200 199 198 195 194 193 191 190 189 185 181 181 184 186 188 190 191 191 197 206 212 214 217 218 218 220 222 224 227 231 234 237 238 238 240 243 245 246 249 251 251 254 256 258 261 266 272 271 258 247 248 256
185 180 184 192 194 199 203 203 201 201 203 202 197 193 191 191 190 188 186 185 181 177 177 179 181 182 183 182 186 198 212 216 214 214 214 215 217 219 223 228 232 236 238 238 240 244 247 247 248 251 253 253 252 252 256 262 267 269 261 245 242 251 256
184 182 186 189 193 198 201 204 206 206 203 197 191 189 189 188 186 183 177 174 172 169 168 169 170 172 177 185 197 214 225 221 213 211 213 213 216 221 227 230 234 237 240 242 246 249 251 251 253 256 256 255 252 252 258 263 265 263 251 239 240 246 251
196 191 187 186 193 202 204 205 208 206 200 191 187 187 186 183 181 176 168 162 161 159 160 165 170 174 183 196 213 228 230 224 216 214 214 216 222 228 230 230 232 237 242 245 248 250 253 256 259 260 262 263 261 259 260 263 264 257 242 234 238 242 251
187 184 184 184 186 196 205 204 201 196 188 182 184 188 186 182 178 170 161 156 155 154 161 171 178 185 196 209 223 230 228 223 219 218 220 223 229 231 230 229 232 237 241 244 246 250 253 255 257 260 269 276 277 274 268 261 257 251 239 232 234 242 257
165 159 168 177 180 187 193 189 181 174 172 176 182 182 179 175 168 157 152 156 156 158 171 185 192 200 209 218 223 225 225 226 225 224 224 226 229 230 229 230 233 235 238 242 244 246 249 250 252 255 261 264 269 278 277 266 255 246 236 230 233 243 256
130 139 146 151 159 160 153 153 154 149 152 161 158 143 127 120 127 131 139 164 168 170 184 198 204 210 215 219 222 225 228 229 227 225 225 227 230 230 227 228 230 229 232 238 241 240 242 249 255 258 261 259 260 274 284 279 266 250 233 228 235 243 249
102 110 119 117 122 128 127 132 139 139 148 161 158 152 148 145 149 156 165 203 212 201 200 205 209 212 215 218 223 228 230 227 225 224 226 228 229 226 222 225 228 225 230 241 245 245 246 252 257 258 260 261 256 255 258 262 265 256 243 237 237 237 240
91 88 91 94 109 130 130 125 124 125 132 144 145 148 151 153 162 174 180 211 229 221 208 205 208 210 214 220 225 228 225 222 222 224 225 227 227 224 223 226 226 225 238 249 250 249 248 249 249 248 250 252 247 243 239 238 245 252 251 244 235 230 232
83 88 91 95 110 128 125 114 113 117 121 132 137 145 155 161 168 173 183 220 237 227 207 204 208 210 214 219 222 222 219 217 220 222 223 223 221 219 219 219 221 230 244 249 247 243 240 239 238 236 237 240 242 242 241 242 248 253 250 241 232 228 228
85 95 100 104 114 129 129 126 128 126 122 127 136 145 158 168 172 170 185 226 238 220 201 206 209 208 212 214 215 216 213 212 214 215 217 218 215 214 213 213 220 230 235 234 231 230 231 234 236 234 233 236 242 246 248 253 257 253 243 233 228 227 226
97 108 116 121 128 135 134 132 132 129 122 123 133 145 156 167 170 162 168 225 223 178 164 183 200 197 195 194 201 208 206 204 202 201 205 209 209 213 218 222 229 233 229 224 223 226 232 235 237 237 237 238 243 249 255 260 258 247 235 225 222 225 225
96 113 125 135 140 141 138 134 133 130 123 120 131 144 151 156 158 151 146 174 195 148 140 169 196 188 175 174 182 187 188 190 190 188 191 196 201 209 218 224 228 229 226 224 225 228 233 237 236 235 236 241 248 255 261 260 247 235 225 219 220 223 223
43 62 106 132 144 145 140 135 134 132 126 124 134 143 147 150 151 142 137 154 196 179 171 189 197 185 174 176 175 172 176 185 188 186 186 189 195 204 210 214 218 221 226 230 231 232 236 238 237 237 241 250 260 265 266 258 241 228 222 220 224 226 227
65 76 110 132 139 141 138 135 135 132 129 131 137 141 145 149 148 136 133 157 190 193 185 190 193 186 182 179 175 176 181 186 189 188 185 183 188 196 201 206 214 222 229 235 236 239 243 245 247 252 258 262 264 263 258 250 241 232 226 224 228 232 237
103 112 131 138 134 134 136 137 137 134 134 138 144 146 147 149 147 142 143 159 175 172 178 186 186 185 187 185 184 188 190 190 191 191 188 188 191 195 196 203 215 225 233 238 240 243 248 252 258 265 264 259 259 258 252 247 243 237 228 225 231 239 247
142 144 149 150 144 137 138 142 143 142 143 146 148 149 146 141 138 136 140 141 57 33 82 190 181 177 181 184 184 186 189 193 194 192 195 200 202 202 202 203 210 222 231 236 240 244 251 261 272 274 259 253 256 255 250 246 244 239 232 230 236 242 250
165 161 161 162 158 152 152 157 156 152 151 152 153 151 145 139 133 117 79 64 85 100 200 197 186 176 173 171 171 175 177 181 187 193 200 203 203 205 206 202 198 203 213 222 229 238 250 263 272 253 225 226 234 243 245 239 232 226 222 223 231 238 243
Height
749 750 751 752 754 756 757 759 761 765 768 771 774 777 780 783 786 788 791 794 796 799 801 803 805 806 808 810 812 814 815 816 817 818 819 820 821 822 823 823 823 823 824 824 825 826 826 827 827 827 826 826 826 826 825 825 825 825 825 825 825 825 824
747 749 750 751 752 753 754 756 758 761 765 768 771 774 777 779 781 784 787 791 793 796 799 800 802 804 806 808 811 813 814 815 816 816 817 818 819 820 821 822 822 822 823 823 824 824 825 825 825 825 825 825 825 825 824 824 824 824 824 824 824 823 823
746 748 747 747 748 749 751 754 756 758 762 765 768 771 773 774 776 779 783 787 790 794 796 798 800 802 804 806 808 810 812 814 815 815 815 816 817 819 820 821 821 821 821 822 822 823 823 824 824 824 824 824 824 823 823 823 823 823 823 822 822 822 822
743 742 742 743 743 745 748 750 753 756 758 761 763 765 768 770 773 776 779 782 786 790 793 795 797 799 802 804 805 808 809 811 813 813 814 814 815 817 818 819 819 820 820 821 821 822 822 823 823 823 823 823 823 822 822 822 821 821 821 821 820 820 820
740 740 742 743 743 745 746 747 750 752 755 758 760 762 765 767 771 773 776 779 782 786 789 792 795 797 799 801 803 805 807 809 810 811 812 812 813 814 815 816 817 818 819 819 820 821 821 821 821 822 822 821 821 821 820 820 820 820 820 819 819 819 818
739 740 741 741 742 743 743 745 747 748 752 754 757 760 763 766 769 771 773 776 779 783 786 790 792 794 796 798 800 803 805 806 808 809 810 810 811 812 812 814 815 816 817 818 819 819 819 820 820 820 820 820 820 819 819 819 819 819 818 818 818 817 817
736 737 737 738 738 740 741 743 745 747 749 751 755 759 762 764 766 768 771 774 776 780 784 787 789 791 794 796 798 800 802 804 806 807 808 808 809 810 810 812 813 814 816 816 817 818 818 818 818 818 819 819 818 818 818 818 818 817 817 816 816 815 815
730 732 733 734 734 736 738 740 742 745 748 752 755 757 759 762 764 767 769 771 774 777 780 783 786 788 791 794 796 798 799 801 803 805 806 807 808 808 809 810 811 813 814 815 815 816 816 816 817 817 817 817 817 817 816 816 816 816 816 815 815 814 813
725 728 729 730 731 732 734 736 739 743 746 749 752 754 757 759 762 764 766 769 772 774 777 781 784 786 789 792 794 795 797 799 801 803 804 805 805 806 807 808 809 811 812 813 813 814 814 815 815 815 815 815 815 815 814 814 814 814 814 814 813 812 811
724 727 727 728 729 730 732 735 738 742 744 747 749 752 755 757 759 762 764 767 769 771 774 778 781 785 788 790 792 793 795 797 799 800 801 802 802 802 804 806 808 809 810 811 812 812 812 813 813 813 813 813 813 812 812 812 812 812 812 812 811 810 810
723 726 727 728 729 731 733 735 737 740 742 744 746 749 751 754 757 759 761 764 766 769 772 775 779 783 785 787 790 792 793 794 796 797 798 799 800 799 801 804 806 807 808 809 809 810 810 811 811 811 811 810 810 810 810 810 810 810 810 810 809 809 808
723 724 726 728 729 730 732 733 735 737 738 741 743 745 748 751 753 756 758 761 763 766 769 772 776 779 782 785 787 789 790 791 793 794 795 797 798 798 799 801 804 805 806 807 807 808 808 809 809 809 809 809 808 808 808 808 808 808 808 808 807 807 807
720 721 723 725 726 728 730 732 733 734 735 738 739 742 745 747 750 753 756 758 761 764 767 770 773 776 780 783 784 786 787 788 790 791 793 795 795 796 797 799 802 803 804 805 805 806 806 807 807 807 806 806 806 806 806 806 807 806 806 806 805 805 805
717 720 722 723 724 726 727 729 730 731 733 734 737 740 742 744 747 749 752 755 758 761 764 767 771 774 777 780 781 783 784 786 788 789 791 793 793 794 795 797 799 800 802 803 803 804 805 805 805 804 804 804 804 804 805 805 805 805 804 804 804 804 803
716 718 720 722 723 723 723 724 725 727 729 731 734 737 739 742 745 746 750 752 755 759 761 765 768 771 774 776 778 781 782 784 785 786 789 790 791 792 793 794 796 798 799 801 801 802 802 802 802 802 802 802 802 803 803 803 803 803 803 803 802 802 801
715 715 716 718 719 719 719 720 720 722 725 728 731 734 736 739 741 743 746 749 752 755 758 761 765 768 771 774 776 778 780 781 783 784 786 787 788 789 790 792 794 795 797 798 798 799 800 800 800 800 801 800 800 801 801 801 801 801 801 801 800 800 799
714 714 714 714 715 716 716 716 717 719 721 724 726 729 731 734 736 739 742 744 748 750 753 757 761 764 767 770 772 774 776 779 780 782 783 784 785 786 788 790 791 792 794 794 795 796 797 797 798 798 798 798 798 798 798 798 799 799 799 799 799 798 797
713 713 713 713 713 713 713 714 715 717 718 720 722 725 727 730 732 736 738 741 744 747 750 754 756 760 763 766 769 771 774 776 777 778 780 781 782 784 786 788 789 789 791 791 792 793 794 794 795 795 795 795 795 796 795 795 796 796 796 796 796 796 795
712 712 712 712 712 711 711 711 711 712 714 716 719 721 722 725 728 731 733 737 740 743 747 750 753 756 760 762 766 768 771 773 774 775 777 778 780 782 784 786 786 787 787 788 789 791 791 792 792 792 793 793 793 793 792 792 793 793 793 793 793 794 793
709 710 709 710 710 709 709 708 708 709 711 713 715 716 719 722 724 727 730 733 737 740 744 748 751 754 757 760 763 766 769 771 771 773 775 776 778 780 782 783 784 784 785 786 787 788 788 789 790 790 791 791 791 791 790 790 790 790 790 790 790 791 791
707 707 707 708 708 708 708 707 707 708 709 711 712 715 718 721 723 726 729 732 735 738 742 745 748 751 754 757 761 765 768 768 769 771 772 774 776 778 779 781 781 782 784 784 785 785 786 787 788 788 789 789 789 788 788 788 788 788 788 788 788 788 788
703 703 703 703 704 704 704 704 705 706 707 709 711 714 716 719 721 724 728 730 733 737 740 744 748 751 755 758 761 765 766 766 767 769 770 772 774 776 777 778 779 780 782 783 783 784 784 785 786 786 787 787 787 786 786 785 786 786 786 786 786 786 786
697 698 699 698 699 699 699 700 701 702 704 706 709 711 713 716 719 722 725 729 732 736 739 743 747 752 756 759 761 762 764 764 765 767 768 770 772 773 774 775 777 779 781 782 783 783 784 784 785 785 786 785 785 784 784 783 783 783 783 783 783 783 783
693 694 694 694 695 696 696 698 699 701 704 706 708 710 711 714 717 720 724 728 731 735 738 741 745 749 752 755 757 759 761 763 763 764 766 767 768 769 770 773 776 778 779 780 781 781 781 782 783 784 785 784 784 783 782 781 780 780 780 781 781 781 781
692 691 691 690 692 694 695 697 699 702 704 706 707 709 710 712 714 718 724 728 732 735 738 740 744 746 747 750 753 757 759 760 760 762 763 764 764 766 768 770 771 773 774 775 776 777 778 778 779 780 782 784 784 782 780 779 778 778 779 778 779 779 778
690 689 688 689 690 692 693 696 699 702 705 706 708 711 714 718 721 723 728 732 732 733 736 739 741 743 746 748 752 755 756 757 758 759 760 761 762 763 765 767 768 770 772 773 774 775 775 775 775 774 775 777 778 778 779 778 777 776 776 776 777 776 776
688 687 688 689 691 693 695 698 700 703 705 707 710 715 720 729 735 738 742 744 739 734 735 739 741 743 745 748 750 753 753 754 756 758 758 759 760 762 763 765 766 768 769 771 772 772 771 771 772 772 772 773 773 774 776 778 778 775 774 774 774 774 773
689 689 690 692 694 695 697 699 701 703 705 705 708 711 714 723 734 740 745 751 749 741 737 739 741 742 744 746 748 750 751 753 755 756 757 758 759 761 762 763 764 765 767 769 769 768 768 768 769 770 770 771 771 769 771 774 775 774 773 772 771 770 770
692 693 693 694 696 697 697 700 702 704 707 708 711 713 714 719 727 733 739 746 748 744 740 739 741 742 743 745 746 747 749 751 753 754 755 756 758 759 760 761 762 763 764 765 765 765 765 766 767 768 768 768 768 766 766 768 769 770 770 770 768 768 767
694 695 695 696 698 698 698 701 704 706 709 711 713 716 718 720 725 730 736 742 745 744 741 740 741 742 742 743 745 746 748 750 751 752 753 754 756 758 758 759 760 760 761 761 761 762 763 763 765 766 765 764 765 764 764 766 766 766 767 767 766 765 765
696 698 698 698 699 700 700 702 704 707 711 712 714 718 720 722 726 729 733 740 744 742 739 739 739 740 740 742 743 745 747 748 749 750 751 752 754 755 755 757 757 757 757 758 759 760 761 761 762 762 761 762 762 761 762 764 764 764 764 764 764 763 763
699 699 699 700 700 701 701 703 705 708 711 713 715 717 719 723 726 726 730 739 743 737 735 739 741 740 739 740 741 743 744 745 746 748 749 751 752 752 753 754 754 754 755 756 757 758 759 759 759 759 759 759 759 759 760 760 760 761 761 761 761 760 760
701 701 701 702 702 702 703 704 706 709 711 713 715 716 718 721 723 722 727 738 741 735 735 742 744 741 738 738 739 740 741 742 744 746 747 749 749 750 751 751 752 752 753 754 755 756 757 757 757 757 757 757 757 757 757 757 757 758 758 758 758 758 758
704 704 704 704 704 704 704 705 707 709 711 712 714 714 716 719 723 722 725 733 738 736 737 741 741 738 738 738 738 739 740 741 743 744 745 746 747 748 748 749 749 750 751 752 754 754 755 755 755 755 755 755 755 755 754 754 754 755 756 756 756 756 757
706 706 706 706 706 707 706 707 708 710 712 713 714 714 715 718 723 724 724 730 736 736 736 737 736 736 738 738 738 739 739 740 742 742 743 744 744 745 746 747 748 749 750 751 752 752 753 753 752 753 753 753 752 752 752 751 752 752 754 755 755 756 755
706 707 708 708 708 708 708 709 710 710 712 714 715 717 718 720 722 724 727 731 735 734 733 733 733 735 737 736 737 738 739 739 740 741 741 742 742 744 745 745 747 748 749 749 750 750 750 750 750 750 750 750 750 750 750 750 750 751 753 753 754 754 754
706 707 708 709 709 709 709 710 710 710 711 713 715 717 720 721 723 726 728 729 730 730 733 734 734 735 736 736 737 737 737 738 739 739 740 741 741 743 744 745 746 747 748 748 748 748 748 748 748 748 748 749 749 749 749 750 750 751 752 752 752 753 753
706 706 708 708 708 709 709 709 710 710 711 713 715 717 719 722 724 726 727 727 727 730 734 735 735 735 736 735 735 736 736 737 738 738 739 740 741 742 743 744 745 746 747 747 747 747 747 747 747 747 747 748 748 748 749 749 749 750 750 751 751 751 751